User: anonymous   Login
Location: Caltech
(34.1382°N, 118.1253°W)
Time: 12:25:53
(UTC-08:00)
Language:

CZ-4B DEB - Orbit

View from above orbital plane
View from above orbital plane
View from above satellite
View from above satellite

Ground track
Ground track

The orbit data is extracted from the following two-line orbital elements,

1 27433U 02024D   16345.51531232  .00000093  00000-0  75015-4 0  9992
2 27433  98.9444 312.8202 0013816 221.9043 138.1072 14.12130369750540
Epoch (UTC): 10 December 2016 12:22:02
Eccentricity: 0.0013816
inclination: 98.9444°
perigee height: 842 km
apogee height: 862 km
right ascension of ascending node: 312.8202°
argument of perigee: 221.9043°
revolutions per day: 14.12130369
mean anomaly at epoch: 138.1072°
orbit number at epoch: 75054

The dashed part of the orbit path shows where the satellite is in the earth's shadow,  

DLR